Location: Unspecified
(42.9300°N, 71.1866°W)
Time: 00:34:53
(UTC-04:00)

Okean 3 - Visible Passes

Search period start: 27 May 2016 00:00
Search period end: 06 June 2016 00:00
Orbit: 577 x 605 km, 82.5° (Epoch: 26 May)

Date Brightness Start Highest point End Pass type
(mag) Time Alt. Az. Time Alt. Az. Time Alt. Az.
27 May 6.7 04:14:25 10° NE 04:16:29 13° ENE 04:18:32 10° E visible
28 May 6.4 04:22:07 10° NNE 04:25:11 19° ENE 04:28:15 10° ESE visible
29 May 5.8 04:30:12 10° NNE 04:33:50 28° ENE 04:37:30 10° SE visible
02 Jun 6.5 03:28:19 10° NE 03:30:25 13° ENE 03:32:32 10° E visible
03 Jun 6.2 03:36:02 10° NNE 03:39:08 19° ENE 03:42:14 10° ESE visible
04 Jun 5.6 03:44:06 10° NNE 03:47:47 28° ENE 03:51:27 10° SE visible
05 Jun 4.8 03:52:21 10° N 03:56:23 42° ENE 04:00:25 10° SSE visible
